Regional Weather Roundup
Issued by NWS

Home | Current Version | Previous Version | Text Only | Print | Product List | Glossary Off
Versions: 1 2 3 4 5 6 7 8 9 10 11 12 13 14 15 16 17 18 19 20 21 22 23 24 25 26 27 28 29 30 31 32 33 34 35 36 37 38 39 40 41 42 43 44 45 46 47 48 49 50

000
ASUS43 KTOP 232159
RWRKS

WEATHER ROUNDUP FOR KANSAS
NATIONAL WEATHER SERVICE GOODLAND KS
500 PM CDT THU MAR 23 2017

NOTE:  "FAIR" INDICATES FEW OR NO CLOUDS BELOW 12,000 FEET WITH NO
SIGNIFICANT WEATHER AND/OR OBSTRUCTIONS TO VISIBILITY.

KSZ001>006-013>018-027>032-041>047-232300-
NORTHWEST KANSAS

CITY           SKY/WX    TMP DP  RH WIND       PRES   REMARKS
GOODLAND       SUNNY     83  28  13 S24       29.49F
HAYS             N/A     83  52  34 S31G43    29.57F
HILL CITY      MOSUNNY   82  53  36 S23G32    29.55F
RUSSELL        CLOUDY    85  53  33 S36G46    29.59F
$$

KSZ061>065-074>080-084>089-232300-
SOUTHWEST KANSAS

CITY           SKY/WX    TMP DP  RH WIND       PRES   REMARKS
DODGE CITY     CLOUDY    80  48  32 S26G37    29.61F HAZE
ELKHART          N/A     80  40  24 S25         N/A
GARDEN CITY    MOSUNNY   85  46  25 S24G39    29.56F
GREAT BEND     MOSUNNY   82  53  36 S38G44    29.61F
LIBERAL        SUNNY     86  46  25 S40G47    29.58F
$$

KSZ066>073-081>083-090>101-232300-
SOUTHEAST KANSAS

CITY           SKY/WX    TMP DP  RH WIND       PRES   REMARKS
CHANUTE        SUNNY     77  49  37 S28G38    29.84F
COFFEYVILLE    SUNNY     77  51  40 S17G33    29.85F
HUTCHINSON     MOSUNNY   78  55  44 S29G39    29.68F
MEDICINE LODGE   N/A     79  52  38 S28G39    29.65F
NEWTON         SUNNY     77  56  48 S31G40    29.72F
PARSONS        SUNNY     76  50  40 S17G32    29.86F
WICHITA INTL   MOSUNNY   82  52  35 S30G40    29.72F
WICHITA JABRA  SUNNY     79  53  40 S25G39    29.73F
WINFIELD       SUNNY     81  53  37 S22G31    29.77F
$$

KSZ007>012-019>026-033>040-048>060-102>105-232300-
NORTHEAST KANSAS

CITY           SKY/WX    TMP DP  RH WIND       PRES   REMARKS
CONCORDIA      MOSUNNY   72  58  61 S22G33    29.66F
EMPORIA        SUNNY     77  52  41 S25G37    29.76F
LAWRENCE       SUNNY     81  54  39 SE26G33   29.77S
MANHATTAN      CLOUDY    75  53  46 S21G30    29.72F
OLATHE IND     SUNNY     79  53  40 S22G32    29.79F
OLATHE EXE     SUNNY     78  53  41 S28G39    29.79F
SALINA         PTSUNNY   78  58  49 S29G40    29.67F
TOPEKA BILLARD SUNNY     79  54  41 S16G29    29.75F
TOPEKA FORBES  SUNNY     80  53  39 S28G37    29.75F
$$




USA.gov is the U.S. government's official web portal to all federal, state and local government web resources and services.